Location: B?câia
(46.0167°N, 23.1833°E)
Time: 08:11:09
(UTC+00:00)

Daily predictions for brighter satellites

Satellite Brightness Start Highest point End
(mag) Time Altitude Azimuth Time Altitude Azimuth Time Altitude Azimuth
YAOGAN 1 3.1 16:37:44 10° SE 16:41:44 39° ENE 16:45:46 10° N
Cosmos 841 Rocket 4.2 16:38:30 10° N 16:43:12 33° ENE 16:47:50 10° ESE
SKYMED 2 3.6 16:39:11 10° NNE 16:43:34 86° ESE 16:47:55 10° SSW
In-Cosmos 22 4.2 16:39:58 10° NNW 16:45:18 81° W 16:50:33 10° S
SL-4 R/B 3.1 16:42:46 10° WNW 16:46:56 40° N 16:51:20 10° ENE
Cosmos 1954 Rocket 4.0 16:43:14 10° SSW 16:48:23 88° ESE 16:53:37 10° NNE
Cosmos 2279 Rocket 4.1 16:42:21 10° N 16:48:31 56° ENE 16:54:38 10° SSE
Meteor 1-21 4.4 16:45:05 10° NNW 16:50:51 81° W 16:56:30 10° S
Cosmos 1763 Rocket 3.5 16:47:15 10° NNW 16:52:21 90° W 16:57:27 10° SSE
Cosmos 1634 Rocket 4.0 16:46:45 10° N 16:52:58 90° W 16:59:09 10° S
NOSS 3-1 (A) 4.2 16:45:42 10° NW 16:53:12 87° SW 17:02:05 10° SE
OBJECT-B 2.4 16:54:33 11° ENE 16:54:54 11° ENE 16:55:50 10° NE
Aureole 1 4.3 16:53:00 10° S 16:55:53 49° ESE 16:59:03 10° NNE
Cosmos 2219 3.4 16:50:49 10° NNW 16:56:36 82° WSW 17:02:21 10° SSE
Cosmos 1869 Rocket 4.3 16:52:59 10° SSW 16:57:23 61° W 17:01:51 10° N
Cosmos 2221 Rocket 3.9 16:54:28 10° N 16:58:49 45° ENE 17:03:09 10° SSE
ISS -2.9 16:58:01 10° WNW 17:01:13 39° NNE 17:03:48 14° E
NOSS 2-2 (D) 4.5 16:56:44 10° NW 17:01:46 81° SW 17:08:57 10° SSE
Cosmos 2360 4.3 16:58:03 10° SSW 17:03:48 88° WNW 17:09:33 10° NNE
SL-14 R/B 3.6 17:01:24 10° N 17:05:11 42° ENE 17:08:58 10° SSE
USA 215 4.1 16:59:40 10° NE 17:05:54 49° NNW 17:12:07 10° W
Cosmos 2263 Rocket 2.7 17:02:00 10° NNW 17:07:25 43° NE 17:12:35 11° SE
Cosmos 1741 Rocket 4.3 17:04:25 10° S 17:09:27 46° ESE 17:14:29 10° NNE
HJ-1C 3.1 17:06:58 10° SSE 17:10:03 67° ENE 17:13:10 10° N
Cosmos 1805 3.2 17:08:05 10° S 17:11:54 61° E 17:15:45 10° NNE
Cosmos 1378 Rocket 3.9 17:08:01 10° N 17:12:15 44° ENE 17:16:25 10° SSE
Cosmos 2082 3.7 17:10:30 10° NNW 17:16:17 80° ENE 17:22:01 10° SSE
USA 186 3.0 17:16:11 20° E 17:17:11 24° ENE 17:19:52 10° NNE
IGS 5A 4.5 17:17:10 18° ESE 17:19:15 27° ENE 17:22:43 10° N
IRIDIUM 103 4.5 17:14:35 10° SSE 17:19:35 49° E 17:24:37 10° NNE
Cosmos 1733 Rocket 3.0 17:17:31 10° S 17:21:57 86° E 17:26:26 10° N
ARGOS Delta rocket 4.1 17:16:50 10° N 17:22:14 85° WNW 17:27:20 10° SSW
Cosmos 1766 3.6 17:20:39 10° SSE 17:24:18 40° E 17:28:00 10° NNE
BREEZE-M DEB (TANK) 4.1 17:20:45 10° SW 17:25:19 76° SSE 17:44:52 10° ENE
Okean-O 3.5 17:23:08 19° ESE 17:25:23 31° ENE 17:29:17 10° N
Cosmos 1697 Rocket 3.3 17:20:22 10° SW 17:25:54 60° WNW 17:31:30 10° NNE
Cosmos 1242 Rocket 2.9 17:24:34 10° SSW 17:28:06 67° WNW 17:31:40 10° N
CSL-04 Debris 4.4 17:24:34 11° SE 17:29:33 47° ENE 17:34:43 10° N
Cosmos 1726 2.0 17:27:01 10° S 17:30:35 61° E 17:34:12 10° NNE
Cosmos 2084 3.4 17:33:51 10° SW 17:37:40 69° NW 17:41:29 10° NE
CZ-3 Stage 3 4.5 17:32:28 10° SW 17:37:44 30° SSE 17:47:28 18° ESE
IRIDIUM 106 4.2 17:32:39 10° S 17:37:50 72° E 17:43:02 10° N
Feng Yun 1-1 Rocket 4.4 17:42:33 10° S 17:48:05 75° WSW 17:53:32 10° NNW
Cosmos 2285 Rocket 4.1 17:42:14 10° NNW 17:48:30 59° ENE 17:52:21 24° SE
Cosmos 2227 Rocket 4.3 17:45:07 10° NW 17:49:44 26° WSW 17:54:20 10° SSW
Meteor 2-16 Rocket 4.4 17:43:48 10° S 17:49:46 58° E 17:55:48 10° NNE
Timation 2 Rocket 3.9 17:43:44 10° NNW 17:50:17 88° ENE 17:55:08 18° SSE
Gbstr 26 Del rocket 4.5 17:43:32 10° SW 17:51:04 68° SE 17:57:33 17° ENE
Cosmos 1470 4.5 17:53:20 19° NE 17:53:20 19° NE 17:54:40 10° NNE
Meteor 1-12 Rocket 4.3 17:45:18 10° S 17:51:13 68° E 17:57:12 10° NNE
CZ-4 R/B 2.2 17:48:14 10° S 17:52:18 52° W 17:56:25 10° NNW
CZ-4B R/B 4.4 17:49:05 10° SSW 17:54:05 41° W 17:59:14 10° NNW
Cosmos 2026 Rocket 4.2 17:48:39 11° SSE 17:54:06 41° E 17:59:43 10° NNE
MINOTAUR IV R/B 4.5 17:50:30 10° SSW 17:54:58 67° ESE 17:59:28 10° NNE
deb Chang Zheng 4 4.2 17:58:36 34° ENE 17:58:36 34° ENE 18:02:03 10° N
Okean O Rocket 2.9 17:55:19 10° SSW 17:59:23 40° W 18:03:31 10° NNW
Nadezhda 4 Rocket 4.0 17:54:13 10° S 18:00:33 90° W 18:06:55 10° N
CSL-04 Rocket 3.5 17:57:05 21° SSE 18:00:40 75° ENE 18:06:04 10° N
SJ-6B 2.5 18:01:55 50° SSE 18:02:50 83° ENE 18:06:36 10° N
Cosmos 1908 Rocket 3.4 18:00:50 10° S 18:05:10 86° E 18:09:32 10° N
Cosmos 1980 Rocket 2.8 18:00:07 10° SW 18:05:41 58° WNW 18:11:14 10° NNE
JB-3 4.3 18:02:33 10° NNE 18:06:34 60° E 18:06:34 60° E
Cosmos 968 Rocket 3.5 18:04:22 10° S 18:09:29 55° ESE 18:14:37 10° NNE
MetOp-A 4.3 18:10:48 32° NNE 18:10:48 32° NNE 18:13:21 10° N
Cosmos 1782 Rocket 4.1 18:13:45 42° NE 18:13:45 42° NE 18:16:55 10° NNE
Meteor 1-24 Rocket 3.5 18:11:47 10° N 18:17:05 67° ENE 18:18:19 50° SE
Cosmos 2278 3.7 18:13:06 10° SSW 18:18:48 80° WNW 18:24:31 10° NNE
Landsat 5 3.9 18:14:31 10° N 18:19:01 70° WNW 18:23:28 10° SSW
Landsat 7 3.6 18:19:19 59° SE 18:20:10 78° ENE 18:24:54 10° N
Ariane Rocket 4.2 18:22:22 28° NE 18:22:22 28° NE 18:25:46 10° N
SL-16 R/B 2.2 18:17:14 10° S 18:22:44 56° ESE 18:28:16 10° NE
Cosmos 2292 Rocket 4.1 18:17:37 10° SSW 18:23:38 78° W 18:28:09 10° N
Cosmos 1437 Rocket 3.1 18:24:58 56° NNW 18:24:58 56° NNW 18:28:02 10° N
OBJECT-B 2.9 18:25:24 21° WNW 18:25:24 21° WNW 18:26:55 10° NW
Meteor 1-22 Rocket 4.0 18:20:24 10° S 18:25:44 79° E 18:31:18 10° NNE
SL-4 R/B 2.3 18:22:23 10° WNW 18:26:57 69° NNE 18:27:05 69° NE
Cosmos 1570 Rocket 3.9 18:22:01 10° NNW 18:27:19 85° ENE 18:28:15 62° SSE
MOS 1 4.3 18:27:45 53° E 18:28:07 54° ENE 18:33:38 10° N
H-2A R/B 3.3 18:32:30 40° N 18:32:30 40° N 18:35:07 10° N
Cosmos 1844 Rocket 3.1 18:29:04 10° NNW 18:34:20 44° NE 18:34:20 44° NE
Cosmos 2278 Rocket 4.5 18:34:10 10° NNE 18:35:10 10° NNE 18:35:37 10° NE
Cosmos 1092 Rocket 4.0 18:30:07 10° S 18:36:27 85° W 18:42:46 10° N
ISS -1.9 18:34:45 10° WNW 18:36:41 30° W 18:36:41 30° W
Cosmos 1025 Rocket 3.6 18:34:54 10° N 18:38:03 48° N 18:38:03 48° N
Resurs 01 Rocket 2.4 18:42:04 42° N 18:42:04 42° N 18:45:07 10° N
Terra 4.2 18:44:56 11° NNE 18:44:56 11° NNE 18:45:23 10° NNE
Meteor 2-5 Rocket 4.0 18:38:51 10° NNW 18:44:21 65° W 18:46:13 40° SSW
Cosmos 1975 Rocket 3.5 18:40:04 10° N 18:43:37 56° NNW 18:43:37 56° NNW
USA 215 4.5 18:44:25 20° NE 18:48:06 34° N 18:53:50 10° WNW
Cosmos 2208 Rocket 4.0 18:43:55 10° NNW 18:49:19 80° WSW 18:49:29 79° SW
USA 186 4.3 18:49:21 20° W 18:49:27 20° W 18:51:56 10° NW
Cosmos 2263 Rocket 3.6 18:46:11 10° NW 18:51:13 33° WSW 18:54:19 20° SSW
Cosmos 1844 4.2 18:47:16 10° NNW 18:51:49 47° NNE 18:51:49 47° NNE
USA 81 4.3 18:47:33 10° N 18:52:48 67° W 18:53:33 59° SW
Okean-O 4.3 19:00:42 26° WSW 19:01:49 29° W 19:05:42 10° NW
IRS-1A Rocket 4.5 19:14:07 69° NW 19:14:07 69° NW 19:19:19 10° NNW
USA 281 3.8 19:20:05 46° NNE 19:20:05 46° NNE 19:25:24 10° NNW
SPOT 1/Viking Rocket 4.4 19:22:41 48° WNW 19:22:41 48° WNW 19:26:46 10° NNW
Cosmos 2322 Rocket 4.2 19:43:57 20° NNE 19:43:57 20° NNE 19:45:41 10° NNE
ATLAS 2AS CENTAUR R/B 4.3 19:59:19 10° NNW 20:05:07 25° NNE 20:05:21 25° NNE
SL-16 R/B 4.0 20:02:20 10° WSW 20:07:10 28° NW 20:12:01 10° N
Cosmos 2278 Rocket 4.3 20:15:31 10° NNW 20:17:26 21° N 20:17:26 21° N
USA 215 4.4 20:31:46 37° NNW 20:31:46 37° NNW 20:36:17 10° NW
